Location: Dehesa de la Cepeda
(40.6574°N, 4.3013°W)
Time: 11:44:56
(UTC+00:00)

Vanguard 2 Rocket - Pass Details

Date: 10 August 2021
Orbit: 556 x 3323 km, 32.9° (Epoch: 24 September)

Event Time Altitude Azimuth Distance (km) Brightness Sun altitude
Rises 03:24:34 0° 224° (SW) 5,434 - -19.8°
Reaches altitude 10° 03:29:32 10° 213° (SSW) 3,897 - -19.1°
Exits shadow 03:33:22 19° 195° (SSW) 2,817 8.9 -18.5°
Maximum altitude 03:36:37 24° 165° (SSE) 2,216 8.6 -18.1°
Drops below altitude 10° 03:41:27 10° 112° (ESE) 2,561 9.6 -17.4°
Sets 03:43:58 0° 98° (E) 3,246 10.4 -17.0°
